Wind_Speed
25 21 19 16 13 11 8 6 5 4 4 3 3 3 4 6 8 9 11 13 14 15 17 18 20 22 23 25 26 27 28 28 27 26 26 26 27 27 28 28 28 28 29 29 28 28 27 26 26 26 25 25 25 24 24 24 24 24 25 26 28 29 30
27 25 22 19 16 13 10 7 6 5 4 4 3 2 2 3 5 7 8 10 12 13 14 16 18 20 22 22 24 25 26 27 27 27 26 26 26 26 27 27 27 28 29 29 30 29 29 28 27 27 26 26 26 25 25 25 26 26 27 28 29 30 31
28 25 24 22 18 15 12 10 8 6 5 5 4 3 3 2 2 4 6 7 9 11 12 14 16 18 19 20 21 23 24 25 26 26 26 25 25 25 25 26 26 27 28 29 29 30 30 29 29 28 27 27 27 26 26 26 27 27 28 29 30 31 32
28 25 24 24 21 18 16 13 11 9 7 6 4 4 3 3 2 1 3 5 6 8 10 12 14 15 16 17 19 20 22 22 23 24 25 25 24 24 24 25 25 25 26 28 29 29 29 29 29 28 27 27 27 27 27 27 27 28 28 30 31 32 32
27 24 23 25 25 22 19 16 13 11 9 7 5 4 4 4 3 2 1 1 3 4 6 8 10 12 13 14 16 17 19 20 21 22 22 23 23 23 23 23 23 24 24 26 27 28 29 28 28 27 27 27 27 27 27 27 28 28 28 29 30 30 30
28 25 24 26 27 25 21 18 16 14 11 9 7 6 5 5 5 4 3 2 1 1 2 3 5 8 10 11 12 13 15 17 18 19 20 20 21 22 22 22 22 22 23 23 25 26 27 28 28 27 27 26 26 27 27 28 28 27 28 28 28 28 28
29 27 25 26 27 26 23 20 18 17 14 11 10 9 8 7 6 5 4 4 3 2 1 1 2 4 6 8 9 10 11 13 14 15 17 18 19 20 21 21 20 20 21 21 22 23 25 26 27 27 26 26 26 26 26 27 27 28 28 28 28 27 27
31 29 26 25 27 27 25 23 21 20 17 14 12 11 10 9 8 7 6 5 5 4 4 3 3 3 3 4 6 8 9 10 11 11 13 15 16 17 17 19 19 19 18 19 20 21 22 23 25 25 25 24 24 24 24 24 25 26 27 27 26 25 25
34 32 29 27 27 28 27 26 24 23 21 18 15 13 13 12 10 10 9 8 7 6 6 5 5 4 4 3 3 4 6 8 9 9 9 11 13 14 14 15 16 17 17 17 17 18 19 20 21 22 23 22 21 21 20 20 21 22 23 23 23 24 24
37 34 31 29 28 29 28 27 26 26 24 21 18 16 15 14 13 12 11 10 9 9 8 7 7 6 5 4 3 3 3 5 6 7 7 8 9 10 11 12 13 15 15 15 15 15 16 17 18 19 19 20 19 18 17 17 17 18 19 20 21 22 22
39 35 32 31 30 29 27 26 27 28 26 24 21 19 17 16 15 14 13 12 12 11 11 10 9 9 7 6 5 4 4 4 4 4 5 5 6 7 8 8 10 11 13 13 13 13 12 13 14 15 16 16 16 16 15 14 14 14 15 17 18 19 19
39 36 33 32 33 30 27 25 27 28 28 26 23 22 21 18 16 15 14 14 14 14 13 13 12 12 11 10 8 8 7 6 5 4 3 3 3 4 4 4 5 7 9 10 11 11 10 10 10 11 12 12 12 13 12 12 11 11 11 12 13 14 15
39 36 35 35 36 34 29 26 28 30 30 28 26 24 23 21 19 17 15 15 15 16 16 16 15 15 14 13 12 11 10 10 9 8 6 4 3 3 3 2 1 2 3 5 7 8 8 8 8 8 8 8 9 9 9 9 8 8 8 8 9 10 11
41 40 40 40 39 38 33 29 29 31 31 31 29 27 24 22 21 20 19 18 18 18 18 18 19 18 18 17 16 15 14 13 12 11 9 8 6 5 5 4 3 2 2 1 1 3 4 4 4 5 5 5 5 6 6 6 6 6 5 5 5 6 8
43 43 43 42 41 39 36 32 31 33 34 33 32 29 27 25 24 24 24 23 22 22 22 21 21 21 21 20 19 18 17 16 15 14 12 11 9 8 8 7 7 7 6 6 5 4 3 2 1 0 1 1 2 3 4 4 4 4 4 4 4 4 6
45 43 43 43 42 41 38 35 34 35 36 35 34 32 30 28 28 28 29 28 27 27 25 24 24 23 23 23 23 22 20 19 18 17 16 14 13 12 11 11 10 10 10 10 10 9 8 7 7 6 4 3 1 1 2 2 2 3 4 5 6 7 7
47 44 43 44 43 42 39 37 37 38 38 37 36 36 34 33 33 33 34 33 31 30 30 29 27 26 27 27 26 25 24 23 22 22 21 19 17 15 14 13 13 13 12 13 13 14 13 12 11 10 9 8 6 5 3 3 3 3 4 5 7 8 9
47 45 45 45 44 42 40 39 40 41 40 40 40 39 38 38 37 37 36 35 33 32 33 31 30 29 30 30 29 29 28 27 27 27 26 24 21 19 18 17 16 16 15 15 15 15 15 15 15 15 14 13 11 10 10 9 8 7 6 6 7 9 10
47 45 46 48 46 42 42 41 42 41 42 43 45 45 44 42 40 38 36 36 36 35 35 36 34 31 30 30 31 31 31 31 31 31 30 28 26 24 23 21 20 19 19 18 18 17 17 17 18 18 18 17 16 15 14 14 13 13 12 11 11 11 11
48 44 45 47 45 42 42 42 43 45 46 48 49 47 45 43 42 40 36 35 37 38 39 40 37 34 31 30 30 33 35 35 35 35 34 33 32 30 28 25 23 22 21 21 21 20 20 20 20 20 20 20 20 19 18 18 17 17 17 16 16 15 15
51 48 46 46 44 42 41 41 43 46 47 48 48 46 44 42 42 41 38 39 42 43 43 42 38 35 32 30 31 35 36 35 35 36 37 38 37 35 32 28 25 24 24 24 24 24 24 24 23 22 22 22 23 22 21 21 20 21 21 20 20 20 20
53 52 49 48 48 45 42 41 42 44 46 47 47 45 44 43 42 42 42 45 48 48 46 43 39 37 35 34 35 35 33 33 35 36 38 40 40 37 33 31 29 27 26 25 25 25 25 26 26 25 25 25 26 25 23 23 23 23 23 23 23 23 23
53 53 52 52 52 51 48 45 43 43 46 48 48 47 45 44 44 46 48 49 51 51 50 47 43 41 41 39 39 37 34 34 36 36 39 41 40 36 33 32 32 31 30 28 27 27 28 28 27 27 27 28 28 27 26 25 25 25 26 26 26 25 25
55 55 56 56 55 55 54 53 50 48 49 49 47 45 44 43 45 49 52 53 53 53 52 50 48 48 47 44 42 41 40 39 38 39 42 43 41 36 31 31 32 32 31 31 30 31 31 31 31 29 30 31 32 31 31 30 30 30 29 29 28 28 28
60 58 59 60 59 58 57 58 56 53 52 51 48 45 43 42 44 48 52 55 56 54 52 50 50 51 49 47 44 44 44 43 41 41 43 43 42 37 32 30 31 32 33 34 34 34 36 37 37 36 36 36 37 37 37 37 37 36 36 35 34 34 34
66 62 62 63 63 62 60 61 60 55 52 52 52 51 49 48 48 50 53 55 55 53 51 50 50 49 48 48 45 43 44 45 44 42 42 42 42 39 35 32 32 34 37 39 39 38 38 40 42 42 42 41 41 41 41 41 41 40 39 39 39 39 40
70 68 66 67 67 66 64 65 66 63 58 56 56 57 57 56 56 55 55 55 55 54 52 50 48 47 46 45 44 42 44 47 47 46 46 45 45 42 38 35 35 37 40 42 42 42 42 44 45 45 45 45 45 46 46 45 44 43 42 42 41 41 42
73 72 71 71 71 69 67 67 69 70 68 66 64 63 63 62 61 60 57 56 56 56 54 53 51 48 45 44 43 42 44 48 49 50 50 48 46 44 40 37 39 41 42 41 43 45 46 47 49 48 48 49 49 48 47 46 46 47 48 48 46 45 45
76 75 75 75 75 73 70 69 70 72 72 71 70 71 69 66 65 65 63 60 59 59 59 59 59 56 53 51 51 49 48 49 51 53 53 50 48 47 44 44 46 47 46 44 45 46 47 49 51 49 48 50 50 48 46 46 47 49 49 49 49 48 48
82 78 77 78 78 76 73 71 71 73 74 73 73 74 74 72 69 69 69 67 66 66 66 66 64 63 62 62 62 61 59 58 58 59 60 59 57 56 55 54 54 54 53 53 52 51 51 54 55 52 51 53 55 54 52 52 52 52 52 51 51 51 51
91 86 83 81 81 79 76 74 74 75 77 77 76 75 76 76 74 72 72 72 71 71 72 71 69 68 67 68 69 70 70 70 69 68 68 69 68 67 66 65 64 64 64 64 62 59 58 59 59 57 57 61 63 63 61 59 58 60 61 60 58 57 56
100 97 93 90 88 85 81 78 77 78 80 81 80 79 79 78 77 74 74 75 76 76 76 76 75 74 73 73 74 75 77 78 77 75 74 73 73 72 71 71 71 72 72 71 69 67 65 64 63 63 64 67 69 70 69 69 68 68 68 67 65 63 62
105 103 101 99 95 91 87 83 80 80 83 85 84 83 83 81 80 78 75 75 77 79 79 80 80 80 80 79 80 80 81 82 82 82 81 81 80 79 77 76 76 76 75 74 74 74 74 74 74 75 75 75 76 76 76 77 77 75 73 72 71 70 68
107 106 105 103 100 94 90 87 84 82 85 89 88 86 85 84 84 83 80 78 79 81 82 82 82 83 84 85 86 86 87 87 87 88 89 90 89 87 85 84 84 84 82 81 81 82 83 84 84 84 84 83 82 82 82 83 82 81 79 77 77 76 74
110 110 109 107 104 99 95 92 89 85 85 89 91 91 89 87 86 87 86 83 81 82 84 85 85 85 86 88 90 92 93 93 92 93 95 96 94 92 91 90 90 90 90 89 89 90 90 90 90 89 89 89 88 87 87 87 86 85 84 83 82 81 79
111 112 112 111 109 107 104 101 99 95 91 90 91 92 93 91 89 89 89 87 85 84 85 87 89 89 88 88 90 93 96 97 98 97 97 98 97 95 94 94 94 95 95 95 94 94 94 93 92 92 91 91 91 90 90 90 89 88 88 87 87 86 84
112 112 113 114 113 112 111 110 109 107 105 101 98 96 96 95 93 92 91 90 89 88 88 89 90 91 91 90 91 93 96 98 100 100 100 100 99 98 97 97 97 97 97 97 97 97 96 96 95 95 94 94 94 93 93 92 92 91 90 91 91 91 89
113 114 114 115 115 115 115 114 113 113 113 112 111 108 104 102 100 98 96 94 93 92 91 91 91 93 94 94 92 93 95 98 99 100 99 97 96 95 94 95 96 97 97 98 98 99 98 97 96 96 97 96 95 95 94 94 94 94 93 93 93 93 93
Wind_Direction
199 195 199 199 195 184 175 176 171 158 148 139 125 106 92 87 84 74 63 54 50 49 51 52 53 54 55 56 58 58 58 57 56 56 59 62 64 65 66 66 67 67 67 66 65 64 64 64 64 63 64 66 69 73 77 82 87 92 99 104 109 114 119
200 193 196 199 201 195 187 192 191 175 161 158 154 142 122 100 93 85 74 62 53 50 52 52 53 54 54 55 56 58 59 58 57 56 56 59 62 65 66 67 67 67 67 66 65 63 63 63 63 63 63 65 68 72 77 83 88 93 100 106 111 117 121
199 194 196 199 204 204 199 201 200 189 179 171 166 168 166 158 117 96 88 76 63 57 55 54 52 52 53 55 55 56 58 59 59 57 55 55 58 61 64 67 68 68 68 67 67 65 63 63 64 65 65 67 70 74 79 85 90 96 103 108 114 119 122
197 194 198 200 205 208 205 205 205 198 187 183 180 180 184 193 196 150 105 91 79 70 61 55 51 50 51 54 55 55 56 58 59 59 57 55 55 57 61 64 66 68 70 71 70 69 67 65 65 67 69 71 74 78 82 87 93 99 106 112 117 120 123
195 197 202 203 205 208 208 207 210 205 194 190 191 193 198 201 213 218 196 123 103 89 71 56 51 50 50 52 55 55 54 54 56 56 57 57 56 56 57 61 64 66 69 71 72 72 70 68 67 69 71 74 78 81 85 89 95 102 109 115 118 120 122
196 202 210 210 207 208 209 210 212 210 202 197 197 201 206 211 217 222 224 224 201 145 85 59 49 49 49 50 53 55 52 51 52 53 54 54 55 56 57 58 62 66 67 68 70 71 72 70 70 72 74 76 79 84 88 91 97 104 110 115 117 119 121
197 204 212 215 211 208 210 212 214 215 210 204 204 206 209 216 223 227 230 238 242 247 252 311 11 29 41 46 48 49 50 48 46 48 51 50 50 53 58 58 59 64 69 70 69 69 71 72 71 72 75 78 82 87 91 94 99 106 111 114 116 119 121
201 205 211 217 214 210 211 214 216 217 215 211 211 212 211 215 222 230 237 243 250 260 263 271 290 321 360 27 37 41 45 46 44 43 46 47 46 46 53 58 58 60 66 72 74 72 72 73 74 74 75 78 83 87 92 96 102 109 114 116 118 120 123
204 205 208 213 215 212 213 217 220 220 218 215 215 216 214 214 218 226 235 243 249 257 263 271 278 288 304 331 9 27 33 40 45 42 37 39 42 41 44 52 57 59 60 66 74 76 76 77 77 77 77 79 81 85 90 95 103 112 118 120 122 124 127
206 205 205 209 212 213 214 219 222 223 222 220 219 219 219 217 219 224 231 239 246 252 256 262 269 275 284 293 313 338 356 19 35 40 36 32 33 38 42 46 52 58 59 60 65 73 78 80 80 81 81 82 83 84 88 93 101 112 121 125 127 129 131
208 206 207 208 210 211 215 221 225 224 224 225 224 224 224 224 225 226 230 235 242 248 252 256 261 265 268 271 281 294 306 318 344 12 30 29 24 30 41 46 47 52 56 57 59 64 73 79 83 84 85 85 86 87 88 91 99 110 120 129 133 135 137
208 211 212 210 209 210 214 223 227 224 224 227 228 227 229 230 230 230 232 237 241 246 250 253 255 257 258 260 263 270 277 283 291 303 324 343 352 4 22 40 44 46 49 53 56 60 66 73 79 85 87 89 89 90 90 91 96 106 118 129 136 141 144
209 215 217 214 211 211 214 223 226 222 221 225 228 228 231 233 236 238 239 241 244 247 248 250 252 253 253 252 254 257 261 266 270 272 277 286 295 303 321 343 24 43 40 42 48 53 61 70 76 81 88 93 95 94 94 92 92 100 111 126 138 147 152
208 212 214 214 213 212 216 222 224 222 221 224 226 228 229 233 238 242 245 248 250 250 249 249 251 252 252 250 249 250 252 254 258 259 261 263 266 266 269 269 257 243 256 289 354 29 44 63 74 79 85 97 104 103 103 102 101 102 110 123 142 156 163
210 211 211 212 213 215 219 222 222 222 223 222 224 226 229 234 240 243 247 252 254 254 253 253 254 255 255 254 252 249 249 251 253 255 255 255 253 252 251 252 251 249 247 246 245 253 271 283 284 324 102 112 101 89 93 107 120 133 146 159 173 185 192
215 215 215 215 216 219 222 223 222 223 224 223 224 228 233 240 245 246 247 250 253 254 253 252 253 256 256 255 255 254 253 253 254 254 254 253 250 247 246 247 249 250 250 250 248 248 250 258 266 268 262 253 257 63 95 126 159 185 195 202 207 211 213
218 218 218 218 218 221 224 226 224 223 225 226 228 231 236 242 246 247 247 248 251 253 253 251 253 255 255 253 253 254 254 253 252 252 252 252 250 250 250 250 251 253 253 253 254 254 253 255 259 263 266 264 262 255 233 221 229 227 224 229 234 234 233
219 219 220 220 219 221 224 225 225 224 226 228 229 230 234 239 244 246 247 248 250 251 252 252 253 256 258 258 255 253 253 252 251 251 251 251 250 249 248 248 248 251 251 250 252 254 256 257 258 259 261 262 263 259 250 245 248 251 248 246 245 245 245
215 217 221 222 220 219 220 222 224 228 232 234 234 235 237 240 242 243 245 248 250 249 248 247 249 253 258 261 260 256 253 252 250 250 250 250 249 247 246 246 248 251 253 253 254 255 254 254 255 257 259 260 260 260 256 251 251 252 254 254 252 251 250
213 213 217 220 219 220 223 226 230 234 238 239 239 240 241 241 239 237 239 243 244 244 243 242 244 248 253 258 259 257 254 250 246 247 248 246 246 245 244 245 247 250 253 254 256 257 256 253 253 255 258 259 259 259 258 256 254 254 255 256 259 260 260
215 213 212 212 213 217 224 230 233 234 235 237 238 238 238 236 233 233 234 235 236 238 241 241 244 249 254 257 258 257 255 249 245 246 246 241 239 240 241 243 245 247 248 250 253 255 256 256 256 256 257 258 259 260 260 259 258 258 257 257 259 261 263
213 213 209 207 208 211 215 222 230 230 229 230 231 230 230 230 229 230 232 233 235 239 242 243 246 251 255 255 253 252 251 248 244 245 246 242 237 237 239 242 245 246 247 249 251 252 253 254 256 257 258 258 259 259 260 260 259 260 260 261 261 262 264
207 209 207 207 208 208 208 213 222 226 225 224 225 226 228 230 229 229 230 233 237 240 242 243 245 250 252 251 248 244 244 244 242 242 246 245 241 240 243 246 248 250 251 252 253 253 252 251 253 256 259 258 258 259 260 259 258 258 259 259 261 263 266
202 203 204 205 207 208 208 210 217 224 226 225 226 227 229 232 233 231 230 231 235 239 241 242 245 249 250 247 243 240 240 240 241 243 245 244 241 242 247 250 250 251 253 255 256 254 253 253 255 257 258 258 258 260 261 261 260 258 257 257 257 260 263
200 199 201 203 206 208 209 210 215 221 226 225 224 224 224 227 229 229 229 230 234 238 241 243 247 249 247 242 240 239 237 238 241 244 244 243 243 246 247 249 252 255 256 257 256 254 254 256 257 258 258 257 258 260 263 264 262 261 260 260 260 261 263
203 201 201 203 205 207 209 210 212 216 220 221 219 219 220 221 224 226 229 230 233 236 238 241 246 248 244 239 238 237 236 238 241 242 242 245 250 250 245 244 249 254 257 257 255 254 255 257 257 258 258 258 259 261 263 264 263 263 264 266 266 266 266
206 205 204 206 208 210 210 212 213 214 216 218 218 220 221 223 226 229 230 231 232 234 235 237 241 244 243 238 236 236 237 239 240 239 239 245 253 254 248 244 244 246 250 253 253 253 256 258 257 257 258 259 260 261 262 262 262 263 266 269 271 270 269
210 209 208 209 211 212 213 214 215 216 218 219 221 223 225 226 227 228 228 229 230 232 232 230 232 236 237 233 230 232 235 237 237 237 239 243 249 251 247 243 240 240 242 246 249 253 256 257 256 256 258 259 259 258 258 259 261 264 268 270 272 273 272
211 210 210 211 213 215 216 217 218 219 220 221 222 225 227 226 226 226 224 224 224 225 225 225 227 229 230 229 228 228 231 233 233 233 234 236 238 238 237 236 236 236 235 238 244 249 251 252 253 254 255 256 256 256 257 260 264 267 269 272 272 272 272
215 213 212 212 214 217 221 223 223 222 222 222 223 225 226 225 224 224 224 222 221 221 222 224 226 227 228 231 233 233 233 234 233 232 233 234 234 234 235 236 237 237 238 241 246 248 248 248 250 252 254 255 257 259 262 265 267 267 267 270 272 272 271
220 218 217 217 218 220 223 228 230 228 226 224 223 224 225 225 225 225 225 224 223 223 224 226 227 228 229 231 234 235 236 236 236 236 236 237 237 238 239 240 241 242 244 247 250 251 249 249 250 253 255 256 259 262 263 264 265 266 267 270 272 273 271
224 223 223 223 225 226 227 229 232 231 228 225 224 224 225 225 225 226 227 226 226 227 229 231 232 233 234 233 233 234 235 236 238 239 239 240 241 241 242 244 245 246 247 250 251 252 252 253 255 256 257 258 261 262 263 262 264 266 269 271 273 273 272
227 227 227 227 229 230 230 230 232 231 228 225 224 225 226 225 225 225 226 227 227 228 230 233 234 236 237 236 235 233 234 235 237 240 242 243 243 243 244 246 246 247 249 251 253 254 255 257 259 260 261 261 262 262 263 263 265 266 268 269 270 271 272
230 230 230 230 231 231 229 229 230 230 228 225 225 225 226 226 226 226 226 227 227 228 230 232 233 235 235 236 236 235 235 235 236 239 241 242 243 244 245 246 247 248 250 251 253 255 256 259 261 262 262 263 263 262 263 264 266 267 267 267 268 268 269
232 232 233 233 233 233 230 228 228 229 228 226 226 226 226 226 227 227 227 227 228 229 230 231 233 234 234 235 236 236 236 235 236 237 239 241 242 243 245 246 248 249 250 251 252 253 255 258 260 262 262 263 263 263 263 264 265 266 267 267 267 267 267
233 234 235 235 236 236 234 232 231 232 231 229 228 227 226 227 228 229 229 229 229 230 231 232 233 234 234 235 235 236 237 237 237 238 239 241 242 243 244 246 248 249 251 252 252 253 255 257 259 259 260 261 262 262 262 262 263 265 266 266 267 266 267
234 235 236 237 237 238 237 236 236 236 236 235 233 231 229 229 230 230 231 231 231 231 232 233 233 234 234 235 235 236 237 237 238 238 240 242 244 245 246 248 249 250 252 253 254 255 256 257 258 258 259 259 260 260 261 262 262 263 264 265 266 267 267
235 236 236 237 238 239 240 239 239 238 238 238 238 237 236 234 233 233 233 234 234 234 234 234 234 234 235 235 235 235 236 236 237 238 239 241 243 244 246 248 249 251 252 253 255 256 258 258 259 259 259 259 259 259 259 260 261 262 263 263 264 266 267
Height
11003 11005 11007 11008 11009 11009 11010 11011 11012 11013 11014 11014 11014 11014 11013 11013 11014 11014 11014 11014 11014 11014 11013 11013 11013 11012 11011 11010 11009 11008 11007 11006 11005 11005 11003 11002 11002 11001 11000 10999 10998 10998 10997 10997 10996 10995 10995 10994 10993 10993 10992 10991 10991 10990 10990 10990 10991 10991 10992 10992 10993 10994 10995
11001 11003 11005 11007 11008 11008 11009 11010 11012 11013 11013 11014 11014 11014 11014 11014 11014 11014 11015 11015 11015 11015 11015 11015 11014 11014 11014 11013 11012 11011 11010 11009 11009 11008 11007 11006 11005 11004 11003 11003 11002 11001 11001 11000 11000 10999 10998 10997 10996 10996 10995 10995 10994 10994 10994 10994 10994 10995 10996 10996 10997 10998 10999
10999 11001 11003 11005 11006 11007 11008 11009 11011 11012 11013 11013 11014 11014 11014 11014 11014 11015 11015 11016 11016 11016 11016 11016 11016 11016 11016 11016 11015 11014 11014 11013 11012 11011 11011 11010 11009 11008 11007 11006 11006 11005 11004 11004 11004 11003 11002 11001 11000 11000 10999 10999 10998 10998 10998 10998 10998 10999 10999 11000 11001 11002 11003
10998 11000 11002 11003 11004 11005 11007 11008 11009 11011 11012 11013 11014 11014 11014 11015 11015 11015 11016 11016 11017 11018 11018 11018 11018 11018 11018 11018 11018 11017 11017 11016 11015 11015 11014 11013 11012 11012 11011 11010 11009 11009 11008 11008 11007 11007 11006 11005 11004 11004 11003 11003 11002 11002 11002 11002 11002 11003 11003 11004 11005 11006 11007
10996 10998 11000 11001 11002 11004 11005 11006 11008 11010 11011 11012 11013 11013 11014 11014 11015 11015 11016 11017 11018 11018 11019 11019 11019 11020 11020 11020 11020 11020 11020 11019 11018 11018 11017 11017 11016 11015 11014 11013 11013 11012 11012 11011 11011 11011 11010 11009 11008 11008 11007 11007 11006 11006 11006 11006 11007 11007 11008 11008 11009 11010 11011
10993 10996 10998 10999 11001 11002 11004 11005 11007 11008 11010 11012 11012 11013 11013 11014 11014 11015 11016 11017 11018 11019 11019 11020 11021 11021 11021 11022 11022 11022 11022 11022 11021 11021 11020 11020 11019 11019 11018 11017 11016 11016 11015 11015 11015 11014 11014 11013 11012 11012 11011 11011 11010 11010 11010 11011 11011 11011 11012 11012 11013 11014 11015
10991 10993 10996 10998 10999 11001 11002 11004 11005 11007 11009 11010 11011 11012 11013 11013 11014 11015 11016 11017 11018 11019 11020 11020 11021 11022 11023 11023 11023 11023 11024 11024 11024 11024 11023 11023 11022 11022 11021 11021 11020 11019 11019 11018 11018 11017 11017 11016 11016 11016 11015 11015 11015 11015 11015 11015 11015 11015 11016 11016 11017 11018 11018
10988 10991 10994 10996 10998 10999 11001 11002 11004 11005 11007 11009 11010 11011 11012 11012 11013 11014 11015 11016 11017 11018 11020 11020 11021 11022 11023 11023 11024 11024 11024 11025 11025 11025 11025 11025 11025 11025 11024 11024 11023 11023 11022 11021 11021 11020 11020 11020 11020 11019 11019 11019 11019 11019 11019 11019 11019 11019 11020 11020 11020 11021 11021
10986 10989 10991 10994 10996 10998 10999 11001 11002 11004 11005 11007 11008 11010 11011 11012 11012 11013 11014 11015 11016 11018 11019 11020 11021 11022 11022 11023 11024 11024 11025 11025 11026 11026 11026 11027 11027 11027 11026 11026 11026 11026 11025 11025 11024 11023 11023 11022 11022 11022 11022 11022 11022 11022 11022 11022 11023 11023 11023 11023 11023 11023 11023
10983 10986 10989 10991 10994 10996 10997 10999 11001 11002 11003 11005 11006 11008 11009 11011 11011 11012 11013 11015 11016 11017 11018 11019 11020 11021 11022 11023 11023 11024 11024 11025 11025 11026 11026 11027 11027 11028 11028 11028 11028 11028 11027 11027 11027 11026 11025 11025 11024 11024 11024 11024 11025 11025 11025 11025 11025 11025 11025 11026 11026 11026 11026
10981 10984 10986 10989 10992 10994 10996 10997 10999 11000 11001 11003 11005 11006 11007 11009 11010 11011 11013 11014 11015 11016 11017 11018 11019 11020 11021 11022 11022 11023 11023 11024 11025 11025 11026 11026 11027 11028 11028 11029 11029 11029 11029 11029 11029 11028 11028 11027 11027 11026 11026 11026 11026 11027 11027 11028 11028 11028 11028 11028 11028 11028 11028
10979 10981 10984 10987 10990 10992 10994 10995 10996 10998 11000 11002 11004 11005 11006 11007 11009 11010 11011 11012 11013 11015 11016 11017 11018 11019 11019 11020 11021 11022 11022 11023 11024 11024 11025 11026 11026 11027 11028 11029 11029 11030 11030 11030 11030 11030 11030 11029 11029 11028 11028 11028 11028 11028 11029 11029 11030 11030 11030 11030 11030 11030 11030
10976 10979 10982 10984 10987 10989 10991 10992 10994 10995 10997 10999 11001 11003 11004 11005 11007 11008 11010 11011 11012 11013 11014 11015 11016 11017 11018 11019 11019 11020 11021 11022 11022 11023 11024 11025 11025 11026 11027 11028 11028 11029 11030 11030 11031 11031 11031 11031 11031 11030 11030 11030 11030 11030 11030 11030 11031 11031 11031 11032 11032 11032 11032
10973 10975 10978 10981 10983 10986 10988 10989 10991 10993 10995 10996 10998 11000 11002 11004 11005 11006 11007 11009 11010 11011 11012 11014 11014 11015 11016 11017 11018 11018 11019 11020 11021 11022 11022 11023 11024 11025 11025 11026 11027 11028 11029 11030 11030 11031 11031 11031 11032 11032 11031 11031 11031 11031 11031 11031 11032 11032 11032 11033 11033 11033 11033
10969 10972 10975 10978 10980 10983 10985 10986 10988 10990 10991 10993 10995 10996 10998 11001 11003 11004 11005 11006 11008 11009 11010 11012 11013 11014 11015 11016 11017 11017 11017 11018 11019 11020 11021 11021 11022 11022 11023 11024 11025 11026 11027 11028 11029 11030 11030 11031 11031 11032 11032 11032 11032 11032 11032 11032 11032 11032 11033 11033 11033 11034 11034
10967 10970 10973 10976 10978 10979 10981 10983 10985 10986 10988 10990 10991 10993 10995 10997 11000 11002 11003 11004 11005 11006 11008 11010 11011 11012 11013 11014 11015 11016 11017 11017 11017 11018 11019 11019 11019 11020 11020 11021 11022 11023 11024 11026 11027 11028 11029 11030 11030 11031 11032 11033 11033 11033 11033 11033 11032 11032 11032 11032 11033 11033 11033
10966 10969 10971 10972 10974 10976 10978 10980 10981 10983 10985 10987 10989 10991 10992 10994 10996 10998 11000 11001 11003 11004 11005 11007 11009 11009 11010 11012 11013 11014 11015 11015 11015 11015 11016 11016 11017 11017 11018 11018 11019 11020 11022 11023 11025 11026 11027 11028 11029 11030 11031 11031 11032 11033 11033 11033 11033 11032 11032 11032 11032 11032 11032
10962 10966 10967 10966 10969 10972 10974 10976 10978 10979 10982 10984 10986 10987 10989 10990 10992 10994 10996 10998 11000 11002 11003 11004 11006 11006 11007 11008 11010 11011 11012 11012 11012 11012 11013 11014 11014 11015 11015 11015 11015 11017 11018 11020 11022 11023 11025 11026 11027 11028 11028 11029 11030 11031 11032 11032 11032 11032 11032 11032 11031 11031 11031
10954 10959 10959 10959 10963 10967 10969 10972 10974 10976 10978 10979 10981 10983 10985 10987 10989 10991 10993 10995 10996 10998 10999 10999 11000 11001 11003 11004 11006 11007 11008 11008 11008 11008 11009 11010 11011 11011 11011 11011 11012 11013 11015 11016 11018 11020 11022 11023 11024 11025 11026 11027 11028 11028 11029 11030 11030 11031 11031 11031 11030 11030 11030
10946 10949 10950 10952 10959 10963 10965 10967 10970 10972 10974 10975 10977 10980 10982 10984 10986 10988 10990 10992 10992 10991 10991 10992 10993 10995 10998 11000 11001 11002 11002 11002 11003 11003 11004 11005 11005 11005 11006 11007 11009 11010 11011 11013 11015 11016 11018 11019 11021 11022 11023 11024 11025 11026 11027 11027 11028 11028 11029 11029 11029 11029 11029
10940 10942 10943 10948 10954 10958 10960 10963 10964 10966 10968 10969 10972 10976 10977 10979 10982 10983 10985 10986 10986 10985 10984 10986 10988 10991 10994 10996 10996 10996 10995 10996 10997 10997 10998 10998 10998 10999 11001 11003 11004 11006 11007 11009 11011 11013 11014 11016 11017 11019 11020 11021 11021 11022 11024 11025 11025 11026 11026 11027 11027 11027 11027
10936 10938 10940 10943 10945 10949 10954 10958 10958 10959 10961 10964 10967 10969 10972 10974 10977 10978 10978 10978 10979 10980 10981 10983 10985 10987 10989 10991 10991 10991 10992 10992 10992 10992 10991 10991 10993 10995 10997 10999 11000 11001 11003 11005 11007 11009 11011 11013 11014 11016 11017 11018 11018 11019 11020 11021 11022 11023 11024 11024 11025 11025 11025
10931 10934 10936 10937 10937 10941 10946 10950 10950 10951 10953 10957 10960 10963 10966 10969 10971 10972 10972 10972 10973 10975 10977 10980 10982 10983 10984 10985 10986 10988 10989 10988 10988 10988 10987 10988 10991 10994 10995 10996 10996 10998 11000 11002 11004 11006 11008 11009 11011 11012 11013 11014 11015 11016 11017 11018 11019 11020 11021 11021 11022 11022 11022
10925 10928 10930 10931 10932 10936 10939 10942 10943 10945 10947 10952 10957 10960 10962 10963 10964 10965 10967 10967 10967 10969 10972 10975 10977 10977 10978 10980 10981 10983 10984 10984 10984 10984 10984 10984 10987 10991 10993 10994 10995 10996 10998 10999 11001 11003 11004 11005 11007 11009 11009 11010 11010 11012 11013 11014 11016 11016 11017 11018 11018 11019 11019
10917 10920 10922 10924 10927 10930 10933 10936 10938 10940 10943 10947 10952 10955 10955 10956 10957 10959 10961 10961 10961 10963 10967 10970 10971 10971 10972 10973 10975 10978 10979 10979 10980 10980 10980 10981 10983 10986 10989 10992 10993 10995 10995 10996 10997 10998 11000 11001 11002 11003 11004 11005 11006 11007 11008 11010 11011 11012 11013 11014 11015 11015 11016
10909 10912 10914 10917 10920 10923 10927 10929 10932 10934 10937 10941 10944 10945 10946 10947 10949 10951 10954 10955 10956 10958 10961 10964 10964 10965 10967 10968 10971 10974 10975 10975 10976 10976 10977 10977 10978 10980 10983 10987 10990 10992 10991 10991 10991 10992 10994 10995 10996 10997 10998 11000 11001 11002 11003 11004 11005 11006 11008 11009 11011 11012 11012
10901 10904 10907 10910 10913 10916 10919 10922 10925 10927 10930 10934 10937 10937 10937 10938 10940 10943 10947 10950 10951 10952 10954 10957 10959 10961 10963 10965 10967 10969 10970 10971 10971 10972 10973 10973 10973 10974 10977 10981 10984 10985 10986 10986 10986 10987 10988 10989 10990 10991 10993 10993 10995 10996 10996 10997 10999 11000 11002 11004 11006 11008 11007
10894 10897 10900 10903 10907 10910 10912 10915 10917 10919 10922 10926 10929 10928 10928 10930 10933 10937 10941 10945 10946 10946 10947 10949 10953 10957 10959 10960 10961 10962 10962 10963 10965 10966 10968 10968 10968 10969 10972 10974 10974 10976 10977 10979 10980 10981 10982 10982 10983 10985 10986 10987 10988 10989 10990 10992 10993 10994 10996 10998 11000 11002 11002
10886 10889 10892 10896 10899 10902 10904 10907 10909 10911 10915 10918 10920 10919 10920 10923 10926 10930 10934 10937 10937 10938 10938 10939 10944 10950 10952 10950 10950 10953 10954 10955 10957 10959 10959 10959 10960 10960 10962 10962 10963 10965 10968 10971 10973 10974 10975 10975 10976 10979 10980 10980 10981 10983 10984 10986 10988 10989 10990 10991 10993 10995 10995
10877 10881 10884 10887 10890 10893 10895 10898 10901 10903 10906 10910 10911 10912 10913 10915 10918 10921 10925 10927 10928 10928 10928 10929 10934 10941 10943 10941 10942 10946 10947 10947 10949 10950 10949 10949 10951 10952 10952 10953 10956 10958 10960 10963 10966 10968 10968 10968 10969 10972 10974 10974 10975 10977 10979 10980 10982 10983 10983 10985 10986 10988 10989
10867 10871 10875 10877 10880 10883 10886 10890 10893 10895 10898 10901 10903 10904 10905 10907 10910 10912 10915 10918 10920 10920 10920 10921 10925 10930 10935 10935 10936 10939 10941 10940 10941 10941 10941 10941 10942 10943 10945 10947 10950 10952 10953 10955 10958 10959 10959 10960 10962 10965 10967 10966 10966 10969 10972 10973 10974 10974 10975 10978 10980 10981 10982
10857 10861 10864 10867 10870 10874 10878 10882 10884 10886 10889 10892 10894 10896 10897 10898 10900 10903 10905 10908 10910 10912 10913 10915 10917 10921 10925 10928 10929 10931 10933 10933 10933 10934 10935 10935 10935 10936 10938 10939 10942 10943 10945 10947 10949 10950 10951 10953 10955 10957 10958 10957 10957 10960 10963 10962 10963 10967 10969 10970 10972 10973 10974
10846 10850 10853 10857 10860 10865 10869 10872 10875 10876 10878 10881 10884 10886 10888 10888 10889 10892 10895 10897 10900 10903 10904 10906 10908 10911 10915 10917 10919 10921 10923 10925 10926 10928 10927 10926 10926 10927 10929 10930 10932 10934 10937 10939 10940 10941 10943 10945 10947 10948 10949 10948 10948 10951 10951 10951 10953 10958 10962 10963 10963 10964 10964
10836 10839 10842 10846 10850 10855 10859 10862 10864 10866 10868 10870 10872 10875 10877 10878 10879 10881 10884 10886 10889 10892 10895 10896 10898 10901 10904 10906 10908 10909 10912 10916 10918 10918 10915 10914 10915 10918 10920 10922 10923 10926 10928 10931 10931 10932 10933 10935 10938 10939 10939 10939 10940 10941 10941 10941 10944 10947 10950 10953 10954 10954 10955
10825 10828 10831 10834 10839 10844 10847 10850 10852 10855 10857 10858 10861 10864 10866 10868 10869 10870 10873 10875 10878 10881 10884 10887 10889 10891 10893 10895 10896 10898 10901 10904 10906 10905 10903 10903 10907 10911 10913 10914 10915 10917 10919 10921 10922 10923 10924 10925 10928 10929 10930 10930 10931 10931 10931 10931 10933 10936 10938 10940 10942 10943 10945
10814 10817 10820 10823 10827 10831 10834 10837 10840 10843 10845 10847 10849 10852 10854 10856 10858 10860 10862 10865 10867 10870 10873 10877 10880 10882 10883 10884 10885 10886 10889 10892 10894 10894 10892 10893 10897 10901 10904 10905 10906 10907 10909 10910 10912 10913 10915 10916 10918 10919 10920 10920 10920 10920 10921 10921 10922 10924 10926 10927 10929 10931 10933
10802 10805 10808 10811 10814 10817 10820 10824 10828 10832 10834 10836 10838 10840 10842 10845 10846 10849 10851 10854 10857 10859 10862 10866 10870 10873 10873 10873 10874 10875 10877 10879 10881 10883 10883 10884 10886 10890 10893 10895 10897 10897 10898 10899 10901 10902 10905 10906 10907 10908 10909 10909 10909 10910 10910 10910 10911 10913 10914 10915 10916 10917 10919
10790 10793 10796 10800 10803 10804 10806 10810 10815 10818 10821 10823 10825 10827 10830 10833 10835 10837 10839 10843 10846 10848 10851 10855 10859 10862 10863 10863 10863 10864 10865 10866 10868 10871 10872 10874 10876 10879 10882 10884 10886 10887 10888 10889 10889 10891 10893 10894 10895 10896 10897 10898 10899 10900 10901 10900 10900 10901 10903 10904 10905 10904 10905